Location: Cisewo
(53.3833°N, 14.9000°E)
Time: 12:49:59
(UTC+00:00)

BEESAT 3 - Pass Details

Date: 26 September 2021
Orbit: 481 x 510 km, 64.9° (Epoch: 22 October)

Event Time Altitude Azimuth Distance (km) Brightness Sun altitude
Rises 18:56:26 0° 309° (NW) 2,608 ? -19.3°
Reaches altitude 10° 18:59:12 10° 330° (NNW) 1,728 ? -19.7°
Maximum altitude 19:01:49 17° 13° (NNE) 1,345 ? -20.0°
Enters shadow 19:03:06 15° 37° (NE) 1,450 ? -20.2°
